Espace membre
Imprimable
Challenges > Delhalle - Jurbise, 19/09/2015, BEL - La Forestière
Liste des rapports > Delhalle - 14,2 km - Classement
Recherche: Page: [1]
98 Entrées
 
Les réclamations ne sont plus acceptées, les résultats sont considérés comme définitifs.
RangNrNomAgeIOCLigueEquipeRéelTempsTkmMoy.ScrPtsLocalité
1.351DUTRIFOY ALEXANDRE42BELUACESM51:3851:403:39 16.4961073LODELINSART
2.238VAN DEN ABEELE SEBASTIAN45BELACLOJOGGING PLUS53:0953:103:45 16.0371042CARNIERES
3.6219GOCHARD MANU49BEL55:3555:363:55 15.339994LANEFFE
4.435DUVIVIER DANY47BELBAC56:2356:243:59 15.1111977TOURNAI
5.321ORVAL ALAIN46BEL56:2756:293:59 15.0912975CINEY
6.6267CEUPPENS GEERT42BELAC DUFFNAMURABI56:3056:323:59 15.0713973
7.6231LELIÈVRE THIERRY43BELWSJOGGANS56:4056:424:00 15.0316967BRUXELLES
8.6292CAVYN JEAN-PHILIPPE47BELVERTIGO57:3357:364:04 14.7920948
9.699NOUAMANI MOHAMMED44BELJOGGANS57:5657:574:05 14.7123938BRUXELLES
10.103VAN WYNENDAELE DIMITRY42BELJOGGANS58:1958:204:07 14.6126929BRUXELLES
11.851BAIJOT PHILIPPE49BELJCCS58:4058:414:08 14.5227922GEDINNE
12.236DUYCK XAVIER48BEL59:0559:084:10 14.4128913SPY
13.456ROMBOUTS ERIK42BELAVN59:2859:304:12 14.3231904HOOGSTRATEN
14.6364FRECOURT XAVIER44BEL59:4259:544:14 14.2334898JURBISE
15.6314VIART GILLES47BELTHEODO TEMPO59:521:00:014:14 14.2036893
16.6402DEPAEPE PATRICK45BELOXY20001:00:101:00:124:15 14.1538886
17.6320SERGYSELS PASCAL47BELJOGGANSJOGGANS1:00:371:00:394:17 14.0540877BRUXELLES
18.123BERGIERS CHRISTOPHE47BELCC ST MARTIN1:01:031:01:054:19 13.9542867WALHAIN
19.228MARCHAL YVES45BELRUNNING WILD1:01:221:01:244:20 13.8844860VEDRIN
20.78DUTRIEUX FERNAND44BEL1:01:331:01:344:21 13.8445856BAUDOUR
21.106LORGE JEAN MARC49BELRONVAU1:01:431:01:454:21 13.8046852EGHEZEE
22.6251TABTI SAÏD40BEL1:01:501:01:564:22 13.7648849MASNUY-SAINT-JEAN
23.284MARTHOZ PASCAL46BELCEPAL1:01:551:02:004:22 13.7450846BRUXELLES
24.6265D'AUREA PHILIPPE43BEL1:02:251:02:254:24 13.6554834
25.777DESTREBECQ FRANCOIS41BELET CHIEVRES1:02:251:02:284:24 13.6456832FRASNES
26.6385CORTVRINT GREG41BELFRAMERIES EUROPEAN RUNNER1:03:051:03:124:28 13.4859819FLÉNU
27.6360DUPONT LESTHER41BELFER1:03:061:03:134:28 13.4860817
28.294HASSOUTE EL MOUSTAFA49BELCSFMYSTERE1:03:411:03:464:30 13.3662806FOREST
29.612DEMORTIER LUC45BEL1:03:551:03:574:31 13.3364801SPY
30.148HALLEUX JEAN-MARIE45BELHERV1:05:191:05:264:37 13.0279765HERVE
31.6297D'ANGELO GABRIELE44BELFERFER1:05:301:05:374:38 12.9981761
32.6392LOMBARD PHILIPPE44BELOBJTOTAL1:05:121:05:384:38 12.9882764SAINT-DENIS
33.6273MARBAIX DIDIER49BELVERTIGO1:05:321:05:394:38 12.9883758
34.404TILBURGS FRANK48BELAVN1:05:451:05:514:39 12.9487752MEER
35.759DUBOIS THIERRY43BELJC HERINNES1:06:081:06:274:41 12.8292741KAIN
36.6298LUCAS ROMUALD42BEL1:06:131:06:454:42 12.7795737
37.6304BRASSEUR OLIVIER43BEL1:06:371:06:484:43 12.7696730
38.6329SURMONT JEAN-POL47BEL1:07:051:07:094:44 12.69101718
39.6346BARTOSZUK ROMAN41BEL1:07:141:07:234:45 12.65102716ZAVENTEM
40.370DE GEEST ALEXANDRE44BELMYSTERE1:08:201:08:254:50 12.46109693BRUXELLES
41.6396SOGALOW JEAN-MARC48BEL1:08:291:08:364:50 12.42113686JURBISE
42.261RIESTRA JOSÉ MANUEL45ESPCSFMYSTERE1:08:341:08:424:51 12.40117682UCCLE
43.6361DELAUNOIS DAVID41BELGENERALI BELGIUM1:08:411:08:544:52 12.37118680CHIÈVRES
44.540LECLERCQ BRUNO49BELCSFMYSTERE1:09:141:09:194:53 12.29121669FOREST
45.6351COOLS OLIVIER43BEL1:09:031:09:194:53 12.29122670
46.6235LIÉGEOIS OLIVIER47BELVERTIGO1:09:321:09:394:55 12.23126660JURBISE(MSJ)
47.824GOBERT PASCAL43BEL1:09:521:10:074:57 12.15131650LEUZE
48.388BUCHET FREDERIC43BELUSBWMYSTERE1:10:401:10:525:00 12.02139632BRAINE-L'ALLEUD
49.6279PIQUART BEN48BELRIWARIWA1:10:461:10:565:00 12.01141629
50.6221HORLIN GAËTAN44BEL1:10:521:11:035:01 11.99142626SOIGNIES
51.6395BURY JEAN-LUC46BELAMIS JOGGEURS1:10:571:11:195:02 11.95147621
52.923CEULEMANS NICOLAS45BELANTILOB1:11:051:11:215:02 11.94148618INCOURT
53.6327GERARD ALAIN44BELTENDONS DÉTENDUS1:11:171:11:245:02 11.93149614
54.6340KENDA DAMIEN42BELTHEODO TEMPO1:11:301:11:585:05 11.84154606
55.6234LEWILLION PHILIPPE49BELFER1:11:481:12:025:05 11.83155601JURBISE
56.6359COUTEAU STEPHANE41BEL1:12:021:12:025:05 11.83156597
57.6212DEKNOP BENOIT45BELJCHSHJCHSH1:12:021:12:075:05 11.82157597HAM-SUR-HEURE
58.6357LEBRUN OLIVIER40BELMADRES1:12:151:12:255:06 11.77164587
59.6354MODAVE PHILIPPE47BELLES CHICONNIERS1:12:591:13:195:10 11.62175567SAINT-SYMPHORIEN
60.6365MULLER OLIVIER45FRA1:12:411:13:215:10 11.62177570
61.6325LIFRANGE MARC-OLIVIER46BELENJAMBÉ1:13:121:13:335:11 11.58180560BRUXELLES
62.891MINET LAURENT48BELDEDE'S FOULEES1:13:431:13:545:13 11.53186547GELBRESSEE
63.6238MERCIER CLAUDY41BELLA FORESTIÈRE1:13:321:13:585:13 11.52187549MAISIÈRES
64.6291CHARLIER DENIS48BELRCNAMUR1:14:091:14:245:15 11.45193535
65.386SIMONS RUDY45BEL1:14:091:14:275:15 11.44194534LOENHOUT
66.6294SOCCIO ERIC MICHEL44BEL1:14:021:14:355:16 11.42195535
67.6316PIRARD JEAN LUC48BELLES GOTTIGNARDS1:14:481:15:085:18 11.34200520LE ROEULX
68.6400GALLEZ THIERRY44BELCANIBLARGNI1:15:181:15:285:19 11.29203511
69.6394BLAUWART EMMANUEL47BELET CHIEVRES1:15:171:15:485:21 11.24204510
70.6217FOBE JEAN-JACQUES49BELENJAMBÉE1:15:411:16:035:22 11.20209500KRAAINEM
71.695DE DAPPER DAVID42BELCSFMYSTERE1:16:531:16:565:26 11.08221473BRUXELLES
72.6382GODEFROID OLIVIER48BELTCDM1:16:511:17:145:27 11.03223472
73.6401MALBECQ ALAIN43BELLA FORESTIÈRE1:17:441:18:105:31 10.90231453LA LOUVIÈRE
74.6220GOSSELIN ROBERT49BELTP MAZEMBE L'SHI RDC1:18:111:18:205:31 10.88232447FLOBECQ
75.6201ANDRE RAPHAEL41BEL19741:18:241:18:305:32 10.85234442JURBISE
76.6374HENDRICK LUC-MICHEL46BEL1:18:141:18:395:33 10.83235443
77.6260ROOS JOEL47BEL1:18:341:19:065:35 10.77239436
78.974LESOIL PHILIPPE48BELENJAMBEE1:18:481:19:085:35 10.77242430BRUXELLES
79.6343DUMONT CEDRIC40BEL1:19:031:19:295:36 10.72246423
80.6389MARLIER PIERRE45BELCHICONNIERS1:19:181:19:485:38 10.68250416
81.6301BRAU MICHAEL42BELBODYMOVE CONCEPT1:19:371:20:055:39 10.64252410
82.6317AUQUIERE ERIC44BEL1:19:561:20:135:39 10.62253406
83.6288MAZZEO ROBERTO44ITAJC RHODIEN1:20:281:20:575:42 10.53259394
84.6367RUELLE FRANÇOIS44BEL1:24:161:24:345:58 10.08296314MONS
85.6383DEWULF JOEL45BEL1:24:151:24:345:58 10.08297313
86.6391GERVAIS DAVID40BELAFRAHM ASBL1:24:031:24:375:58 10.07298315MORLANWELZ
87.638MABILLE JOËL48BELJCHSHJCHSH1:24:301:25:056:00 10.01300308HAM-SUR-HEURE
88.6204BRODEN PHILIPPE48BELJC HSH1:25:071:25:346:02 9.96303297STRÉPY
89.6348MAERSCHALCKE PHILIPPE44BELJCHH1:25:191:25:446:03 9.94307291
90.6414SAUDOYER CEDRIC41BEL1:25:231:25:456:03 9.94308289
91.995GREVISSE DAVID41BELRONVAU1:25:351:25:476:03 9.93309287DION VALMONT
92.6243PICCA GIUSEPPE48BELVERTIGO1:26:001:26:276:06 9.86317275NOIRCHAIN
93.6223JONNIAUX PASCAL49BELJCHSHJCHSH1:26:101:26:286:06 9.85318272HAM-SUR-HEURE
94.6200AMAND VINCENT45BEL1:28:391:28:596:16 9.58332230FLOBECQ
95.6225JUDICQ JEAN46BEL1:28:571:29:186:18 9.54338221BRAINE L' ALLEUD
96.6330SAWERYNIUK CHRIS43BEL1:31:031:31:326:27 9.31343193SAINT-SYMPHORIEN
97.832VANDEN BROECK MARC42BELCRAZY MONKEY1:39:321:39:477:02 8.5437473BLAIMONT
98.402GALLOT DOMINIQUE41BELJCHSHJCHSH1:41:101:41:407:10 8.3837853HAM-SUR-HEURE
DNF: abandon; DSQ: disqualifié; Vitesse en km/h
Page: [1]